TIME,DELAY(SENSOR),PRES,OXYGEN,RAWTEMP,T(OPTODE),TCPHASE,FLUOR,BETA(BETA700),BETA(BETA412),BETA(BETA440),CDOM,C(CSC),ED(ED412.20),ED(ED444.00),ED(ED489.60),ED(ED554.30),LU(LU412.10),LU(LU443.90),LU(LU489.70),LU(LU554.70),COMP,TILTX,TILTY,CHECK
1350616756,5807,899.4400024414062000,35.6742515563964840,557.0139770507812000,4.5784001350402830,56.1425399780273440,54,102,101,77,82,15529,0,0,0,0,2147124269,2147779145,2147571830,2147571849,2593,3,13,53631
1350620352,5807,962.0599975585938000,40.2603607177734400,563.3753051757812000,4.3812408447265625,55.5039482116699200,55,98,100,77,82,15528,0,0,0,0,2147124187,2147773257,2147572361,2147567259,586,3,13,55177
1350623952,5809,965.4400024414062000,40.8949089050293000,564.0490112304688000,4.3603420257568360,55.4216117858886700,55,99,100,78,81,15528,0,0,0,0,2147122752,2147773696,2147574354,2147569508,154,3,13,49547
1350627552,5811,989.3599853515625000,39.7594795227050800,566.2583007812500000,4.2917771339416500,55.6089706420898440,55,100,100,76,83,15527,0,0,0,0,2147126089,2147775122,2147574372,2147568512,3572,3,13,27242
1350631152,5809,999.4600219726562000,39.1878890991210940,566.3156738281250000,4.2899928092956540,55.7014198303222660,55,97,101,77,82,15528,0,0,0,0,2147123428,2147772617,2147573504,2147568822,3569,3,13,16360
1350634752,5808,1004.8900146484375000,39.2552490234375000,566.3969116210938000,4.2874760627746580,55.6874504089355500,55,100,100,78,82,15528,0,0,0,0,2147122404,2147774034,2147574756,2147569371,172,3,13,4074
1350638352,5809,1002.6099853515625000,38.8838882446289060,566.1875000000000000,4.2939758300781250,55.7420310974121100,55,97,100,78,82,15529,0,0,0,0,2147122230,2147771090,2147573028,2147567268,130,3,13,51010
1350641952,5808,997.7700195312500000,38.9834594726562500,566.7476196289062000,4.2765870094299320,55.7298316955566400,55,100,102,78,82,15528,0,0,0,0,2147122331,2147774628,2147576557,2147567579,3528,3,13,48854
1350645552,5808,1004.5999755859375000,39.5472106933593750,567.3522949218750000,4.2578110694885250,55.6548500061035160,55,101,99,78,82,15528,0,0,0,0,2147125440,2147772352,2147573028,2147570368,439,3,13,31837
1350649152,5812,1004.7199707031250000,39.2917594909668000,567.1859741210938000,4.2629737854003910,55.6923904418945300,55,98,100,78,83,15526,0,0,0,0,2147124864,2147772864,2147572992,2147567872,38,3,13,61558
1350652752,5812,1010.2899780273438000,39.2291717529296900,567.2399291992188000,4.2612991333007810,55.6983604431152340,55,98,102,77,83,15525,0,0,0,0,2147124708,2147772946,2147575149,2147567158,117,3,13,38088
1350656352,5808,1010.8499755859375000,38.2717094421386700,565.9702758789062000,4.3007159233093260,55.8349990844726560,55,97,101,77,82,15523,0,0,0,0,2147124205,2147775076,2147571922,2147568603,104,3,13,65022
1350659952,5808,1013.4699707031250000,38.3744697570800800,566.0452880859375000,4.2983880043029785,55.8214988708496100,55,101,101,78,82,15523,0,0,0,0,2147122605,2147772809,2147573147,2147569472,68,3,13,34696
1350663552,5810,1010.2399902343750000,38.0592308044433600,566.0938720703125000,4.2968811988830570,55.8699989318847660,55,98,100,78,83,15523,0,0,0,0,2147121755,2147773568,2147573467,2147570349,3548,3,13,29876
1350667152,5809,1011.0000000000000000,38.0772590637207000,565.8543090820312000,4.3043169975280760,55.8603782653808600,56,98,101,77,83,15524,0,0,0,0,2147121280,2147770377,2147576393,2147571401,136,3,13,22913
1350670752,5806,1012.0700073242188000,37.9096984863281250,565.7340087890625000,4.3080520629882810,55.8852386474609400,56,98,101,78,82,15523,0,0,0,0,2147120822,2147770834,2147574107,2147571364,3475,3,13,64161
1350674352,5809,1011.1900024414062000,37.7697715759277340,565.7700805664062000,4.3069319725036620,55.9119606018066400,56,99,100,78,82,15523,0,0,0,0,2147123885,2147767881,2147574994,2147571648,415,3,13,53606
1350677952,5810,1017.3400268554688000,39.0240097045898440,567.1094970703125000,4.2653479576110840,55.7311096191406250,54,102,100,77,81,15522,0,0,0,0,2147124818,2147773348,2147572187,2147567771,3355,3,13,10265
1350681552,5809,1016.6099853515625000,37.9656906127929700,566.1939697265625000,4.2937741279602050,55.8847999572753900,55,99,105,77,82,15520,0,0,0,0,2147123364,2147773138,2147576502,2147567442,134,3,13,3703
1350685152,5808,1021.1799926757812000,37.9259986877441400,565.6693115234375000,4.3100609779357910,55.8876991271972660,55,100,100,78,83,15521,0,0,0,0,2147119881,2147770203,2147574601,2147570285,3579,3,13,46415
1350688752,5811,1014.6699829101562000,37.9392318725585940,565.9049072265625000,4.3027482032775880,55.8825912475585940,55,98,101,78,81,15520,0,0,0,0,2147122870,2147769892,2147575149,2147569142,3557,3,13,38279
1350692352,5812,1014.2700195312500000,37.9877815246582000,566.5267944335938000,4.2834420204162600,55.8843917846679700,54,99,119,78,83,15518,0,0,0,0,2147123062,2147770121,2147570560,2147571584,3467,3,13,56071
1350695952,5809,1012.2500000000000000,38.6107101440429700,567.3798828125000000,4.2569541931152340,55.7985382080078100,55,103,101,78,82,15521,0,0,0,0,2147123017,2147762733,2147573357,2147568457,42,3,13,18199
1350699552,5809,1014.5499877929688000,38.7806091308593750,567.3939208984375000,4.2565169334411620,55.7741889953613300,56,99,99,78,82,15519,0,0,0,0,2147122368,2147769005,2147575094,2147567350,3590,3,13,15374
1350703152,5810,1017.4400024414062000,38.9855804443359400,567.3901977539062000,4.2566342353820800,55.7390899658203100,55,98,101,78,83,15518,0,0,0,0,2147124132,2147771712,2147570834,2147565952,185,3,13,6424
1350706752,5812,1014.0800170898438000,39.6660194396972660,568.5484008789062000,4.2206611633300780,55.6529083251953100,56,98,101,78,82,15517,0,0,0,0,2147122733,2147773357,2147574710,2147568594,82,3,13,40802
1350710352,5809,1017.2299804687500000,39.7308616638183600,568.1569213867188000,4.2328209877014160,55.6365013122558600,55,99,100,77,82,15518,0,0,0,0,2147124982,2147772845,2147577161,2147566610,386,3,13,60798
1350713952,5810,1015.3800048828125000,39.7744789123535160,568.3436279296875000,4.2270240783691410,55.6290206909179700,55,99,101,77,83,15519,0,0,0,0,2147123648,2147771602,2147572854,2147566336,616,3,13,38629
1350717552,5810,1014.7299804687500000,39.8596496582031250,568.7152709960938000,4.2154750823974610,55.6229591369628900,55,97,100,77,83,15518,0,0,0,0,2147124708,2147770130,2147575241,2147568868,60,3,13,23320
1350721152,5809,1015.0300292968750000,39.4611511230468750,568.4412231445312000,4.2239909172058105,55.6826515197753900,55,98,101,78,82,15516,0,0,0,0,2147121389,2147772059,2147576704,2147571748,3035,3,13,53867
1350724752,5808,1014.2399902343750000,39.8908309936523440,568.7335815429688000,4.2149090766906740,55.6211318969726560,54,97,102,78,83,15518,0,0,0,0,2147122944,2147768210,2147576164,2147566326,148,3,13,57871
1350728352,5808,1017.8200073242188000,40.0745697021484400,568.9014892578125000,4.2096920013427730,55.5906791687011700,56,96,101,78,82,15518,0,0,0,0,2147120676,2147768996,2147572324,2147567936,3535,3,13,42061
1350731952,5807,1016.0599975585938000,39.5564804077148440,568.7703247070312000,4.2137699127197270,55.6684989929199200,55,99,100,77,83,15517,0,0,0,0,2147123227,2147773504,2147572288,2147568457,169,3,13,18641
1350735552,5809,1023.2999877929688000,39.7498397827148440,568.4699707031250000,4.2230968475341800,55.6309394836425800,55,99,100,78,83,15516,0,0,0,0,2147125257,2147770157,2147573348,2147569307,325,3,13,27493
1350739152,5808,1018.4699707031250000,38.6732292175293000,567.5214233398438000,4.2525601387023930,55.7920494079589840,55,97,100,77,82,15514,0,0,0,0,2147123940,2147773330,2147574866,2147570505,108,3,13,19513
1350742752,5807,1021.0200195312500000,38.6675491333007800,567.5737304687500000,4.2509350776672360,55.7877311706543000,55,100,101,76,82,15518,0,0,0,0,2147122816,2147776576,2147576502,2147569472,764,3,13,19043
1350746352,5807,1025.5899658203125000,38.6410408020019500,566.5822143554688000,4.2817230224609375,55.7861900329589840,55,98,100,77,83,15517,0,0,0,0,2147123282,2147778925,2147575552,2147569408,356,3,13,41654
1350749952,5808,1028.0500488281250000,38.2764091491699200,566.0889282226562000,4.2970371246337890,55.8358802795410160,55,98,99,77,83,15519,0,0,0,0,2147120649,2147771657,2147575990,2147569481,99,3,13,63286
1350753552,5810,1028.9899902343750000,37.5394401550293000,565.7147216796875000,4.3086509704589840,55.9405212402343750,54,100,100,78,83,15515,0,0,0,0,2147123757,2147771840,2147577014,2147572516,34,3,13,5013
1350757152,5807,1023.2600097656250000,37.1138114929199200,565.6964111328125000,4.3092207908630370,56.0105781555175800,55,97,103,79,83,15516,0,0,0,0,2147125412,2147770075,2147570569,2147569097,288,3,13,62651
1350760752,5810,1014.7000122070312000,38.9724311828613300,568.1912841796875000,4.2317519187927250,55.7531013488769500,56,102,100,77,82,15516,0,0,0,0,2147122541,2147771840,2147577645,2147571099,3015,3,13,23206
1350761157,5813,1011.5100097656250000,39.3752899169921900,568.6232910156250000,4.2183361053466800,55.6941490173339840,54,98,102,77,83,15516,0,0,0,0,2147126409,2147772068,2147577069,2147572388,3020,3,13,22780
